TimeCET,TemperatureF,Dew PointF,Humidity,Sea Level PressureIn,VisibilityMPH,Wind Direction,Wind SpeedMPH,Gust SpeedMPH,PrecipitationIn,Events,Conditions,WindDirDegrees,DateUTC
12:55 AM,42.8,42.8,100,30.15,-9999.0,NW,5.8,-,N/A,,Clear,310,2013-01-30 23:55:00
1:00 AM,43,43,99,30.18,6,NW,5.8,,,,Clear,310,2013-01-31 00:00:00
1:55 AM,41.0,41.0,100,30.15,6.2,West,4.6,-,N/A,,Partly Cloudy,280,2013-01-31 00:55:00
2:55 AM,41.0,41.0,100,30.15,6.2,SSW,2.3,-,N/A,,Scattered Clouds,210,2013-01-31 01:55:00
3:55 AM,41.0,41.0,100,30.12,6.2,West,5.8,-,N/A,,Scattered Clouds,270,2013-01-31 02:55:00
4:00 AM,40,40,100,30.15,6,West,5.8,,,,Partly Cloudy,270,2013-01-31 03:00:00
4:55 AM,39.2,39.2,100,30.12,6.2,West,5.8,-,N/A,,Scattered Clouds,260,2013-01-31 03:55:00
5:55 AM,39.2,39.2,100,30.12,6.2,East,1.2,-,N/A,,Mostly Cloudy,100,2013-01-31 04:55:00
6:55 AM,39.2,39.2,100,30.09,6.2,SW,2.3,-,N/A,,Mostly Cloudy,220,2013-01-31 05:55:00
7:00 AM,39,39,99,30.13,6,SW,2.3,,,,Mostly Cloudy,220,2013-01-31 06:00:00
7:55 AM,39.2,39.2,100,30.09,6.2,SSW,2.3,-,N/A,,Scattered Clouds,210,2013-01-31 06:55:00
8:55 AM,44.6,44.6,100,30.09,6.2,SE,2.3,-,N/A,,Scattered Clouds,140,2013-01-31 07:55:00
9:55 AM,53.6,51.8,94,30.09,6.2,Calm,Calm,-,N/A,,Partly Cloudy,0,2013-01-31 08:55:00
10:00 AM,54,53,93,30.11,6,Calm,Calm,,,,Scattered Clouds,,2013-01-31 09:00:00
10:55 AM,59.0,48.2,67,30.09,6.2,ENE,5.8,-,N/A,,Partly Cloudy,70,2013-01-31 09:55:00
11:55 AM,66.2,46.4,49,30.12,6.2,East,3.5,-,N/A,,Scattered Clouds,90,2013-01-31 10:55:00
12:55 PM,69.8,41.0,35,30.09,6.2,ESE,16.1,-,N/A,,Scattered Clouds,110,2013-01-31 11:55:00
1:00 PM,70,40,23,30.11,6,ESE,16.1,,,,Scattered Clouds,110,2013-01-31 12:00:00
1:55 PM,66.2,50.0,56,30.12,6.2,ESE,17.3,-,N/A,,Partly Cloudy,110,2013-01-31 12:55:00
2:55 PM,64.4,50.0,59,30.12,6.2,ESE,10.4,-,N/A,,Partly Cloudy,110,2013-01-31 13:55:00
3:55 PM,64.4,50.0,59,30.12,6.2,ESE,9.2,-,N/A,,Partly Cloudy,110,2013-01-31 14:55:00
4:00 PM,64,51,53,30.14,6,ESE,9.2,,,,Scattered Clouds,110,2013-01-31 15:00:00
4:55 PM,60.8,48.2,63,30.15,6.2,SE,5.8,-,N/A,,Partly Cloudy,130,2013-01-31 15:55:00
5:55 PM,57.2,55.4,94,30.15,6.2,SSE,3.5,-,N/A,,Partly Cloudy,160,2013-01-31 16:55:00
6:55 PM,51.8,51.8,100,30.18,-9999.0,SSE,5.8,-,N/A,,Clear,150,2013-01-31 17:55:00
7:00 PM,51,51,100,30.20,6,SSE,5.8,,,,,150,2013-01-31 18:00:00
7:55 PM,50.0,50.0,100,30.21,-9999.0,South,4.6,-,N/A,,Clear,190,2013-01-31 18:55:00
8:55 PM,50.0,50.0,100,30.21,-9999.0,NNW,2.3,-,N/A,,Clear,340,2013-01-31 19:55:00
9:55 PM,44.6,44.6,100,30.24,-9999.0,West,4.6,-,N/A,,Clear,260,2013-01-31 20:55:00
10:00 PM,45,45,98,30.26,9,West,4.6,,,,,260,2013-01-31 21:00:00
10:55 PM,48.2,48.2,100,30.24,-9999.0,WNW,6.9,-,N/A,,Clear,290,2013-01-31 21:55:00
11:55 PM,44.6,44.6,100,30.21,-9999.0,WNW,9.2,-,N/A,,Clear,300,2013-01-31 22:55:00